| time (UTC) | temp F | wind direction | speed knots | gust knots | rain 1hr in | rain 24hr in | rain mn in | humidity % | barometer mb |
| 20260504033017 | 60 | 90 | 1.7 | 6.1 | 0.00 | 0.00 | 0.00 | 51 | 1014.5 |
| 20260504032017 | 59 | 90 | 2.6 | 6.1 | 0.00 | 0.00 | 0.00 | 51 | 1014.6 |
| 20260504031017 | 59 | 90 | 2.6 | 5.2 | 0.00 | 0.00 | 0.00 | 51 | 1014.7 |
| 20260504030017 | 59 | 90 | 2.6 | 7.0 | 0.00 | 0.00 | 0.00 | 51 | 1014.7 |
| 20260504025017 | 59 | 90 | 1.7 | 6.1 | 0.00 | 0.00 | 0.00 | 51 | 1014.8 |
| 20260504024037 | 59 | 90 | 2.6 | 7.0 | 0.00 | 0.00 | 0.00 | 52 | 1014.8 |
| 20260504023037 | 59 | 113 | 0.9 | 4.3 | 0.00 | 0.00 | 0.00 | 53 | 1014.8 |
| 20260504022017 | 59 | 90 | 1.7 | 4.3 | 0.00 | 0.00 | 0.00 | 53 | 1014.9 |
| 20260504021017 | 59 | 90 | 2.6 | 6.1 | 0.00 | 0.00 | 0.00 | 52 | 1014.9 |
| 20260504020017 | 59 | 90 | 1.7 | 5.2 | 0.00 | 0.00 | 0.00 | 53 | 1014.8 |
| 20260504015017 | 59 | 90 | 1.7 | 6.1 | 0.00 | 0.00 | 0.00 | 52 | 1014.8 |
| 20260504014017 | 59 | 90 | 2.6 | 4.3 | 0.00 | 0.00 | 0.00 | 52 | 1014.8 |
| 20260504013017 | 59 | 90 | 1.7 | 4.3 | 0.00 | 0.00 | 0.00 | 52 | 1014.7 |
| 20260504012017 | 59 | 90 | 1.7 | 4.3 | 0.00 | 0.00 | 0.00 | 52 | 1014.6 |
| 20260504011017 | 59 | 90 | 2.6 | 6.1 | 0.00 | 0.00 | 0.00 | 52 | 1014.5 |
| 20260504010017 | 60 | 90 | 2.6 | 6.1 | 0.00 | 0.00 | 0.00 | 51 | 1014.6 |
| 20260504005057 | 59 | 90 | 1.7 | 5.2 | 0.00 | 0.00 | 0.00 | 51 | 1014.7 |
| 20260504004017 | 59 | 90 | 0.9 | 3.5 | 0.00 | 0.00 | 0.00 | 51 | 1014.7 |
| 20260504003057 | 59 | 90 | 0.9 | 4.3 | 0.00 | 0.00 | 0.00 | 50 | 1014.7 |
| 20260504002017 | 60 | 90 | 1.7 | 4.3 | 0.00 | 0.00 | 0.00 | 49 | 1014.7 |
| 20260504001017 | 60 | 90 | 1.7 | 4.3 | 0.00 | 0.00 | 0.00 | 48 | 1014.8 |
| 20260504000017 | 60 | 90 | 1.7 | 5.2 | 0.00 | 0.00 | 0.00 | 47 | 1014.9 |
| 20260503235017 | 61 | 90 | 1.7 | 5.2 | 0.00 | 0.00 | 0.00 | 46 | 1014.9 |
| 20260503234017 | 61 | 90 | 2.6 | 7.8 | 0.00 | 0.00 | 0.00 | 45 | 1014.9 |
| 20260503233057 | 61 | 90 | 2.6 | 6.1 | 0.00 | 0.00 | 0.00 | 44 | 1014.9 |
| 20260503232017 | 61 | 90 | 2.6 | 5.2 | 0.00 | 0.00 | 0.00 | 44 | 1014.8 |
| 20260503231017 | 61 | 90 | 2.6 | 6.1 | 0.00 | 0.00 | 0.00 | 44 | 1015.0 |
| 20260503230117 | 61 | 90 | 2.6 | 7.0 | 0.00 | 0.00 | 0.00 | 43 | 1015.0 |
| 20260503225058 | 61 | 90 | 2.6 | 5.2 | 0.00 | 0.00 | 0.00 | 43 | 1015.1 |
| 20260503224017 | 61 | 90 | 2.6 | 5.2 | 0.00 | 0.00 | 0.00 | 43 | 1015.2 |
| 20260503223017 | 62 | 90 | 2.6 | 5.2 | 0.00 | 0.00 | 0.00 | 42 | 1015.1 |
| 20260503222017 | 61 | 113 | 2.6 | 6.1 | 0.00 | 0.00 | 0.00 | 43 | 1015.2 |
| 20260503221037 | 61 | 90 | 1.7 | 6.1 | 0.00 | 0.00 | 0.00 | 43 | 1015.3 |
| 20260503220017 | 61 | 90 | 1.7 | 4.3 | 0.00 | 0.00 | 0.00 | 42 | 1015.4 |
| 20260503215017 | 61 | 90 | 1.7 | 4.3 | 0.00 | 0.00 | 0.00 | 42 | 1015.3 |
| 20260503214017 | 61 | 90 | 2.6 | 5.2 | 0.00 | 0.00 | 0.00 | 42 | 1015.4 |
| 20260503213017 | 61 | 90 | 1.7 | 5.2 | 0.00 | 0.00 | 0.00 | 42 | 1015.4 |
| 20260503212017 | 61 | 90 | 1.7 | 3.5 | 0.00 | 0.00 | 0.00 | 43 | 1015.4 |
| 20260503211017 | 61 | 90 | 0.9 | 4.3 | 0.00 | 0.00 | 0.00 | 43 | 1015.4 |
| 20260503210017 | 61 | 90 | 0.9 | 3.5 | 0.00 | 0.00 | 0.00 | 42 | 1015.4 |
| 20260503205017 | 61 | 90 | 0.9 | 4.3 | 0.00 | 0.00 | 0.00 | 42 | 1015.5 |
| 20260503204017 | 61 | 90 | 0.9 | 2.6 | 0.00 | 0.00 | 0.00 | 42 | 1015.5 |
| 20260503203017 | 61 | 90 | 0.9 | 2.6 | 0.00 | 0.00 | 0.00 | 42 | 1015.5 |
| 20260503202017 | 61 | 90 | 0.9 | 2.6 | 0.00 | 0.00 | 0.00 | 42 | 1015.5 |
| 20260503201017 | 62 | 90 | 0.9 | 3.5 | 0.00 | 0.00 | 0.00 | 41 | 1015.6 |
| 20260503200017 | 62 | 90 | 0.9 | 4.3 | 0.00 | 0.00 | 0.00 | 41 | 1015.6 |
| 20260503195017 | 62 | 90 | 1.7 | 5.2 | 0.00 | 0.00 | 0.00 | 41 | 1015.6 |
| 20260503194017 | 63 | 90 | 2.6 | 7.0 | 0.00 | 0.00 | 0.00 | 40 | 1015.6 |
| 20260503193037 | 63 | 90 | 1.7 | 5.2 | 0.00 | 0.00 | 0.00 | 40 | 1015.6 |
| 20260503192017 | 64 | 90 | 2.6 | 5.2 | 0.00 | 0.00 | 0.00 | 40 | 1015.7 |
| 20260503191017 | 64 | 90 | 2.6 | 6.1 | 0.00 | 0.00 | 0.00 | 40 | 1015.6 |
| 20260503190017 | 65 | 90 | 1.7 | 3.5 | 0.00 | 0.00 | 0.00 | 40 | 1015.6 |
| 20260503185017 | 65 | 90 | 2.6 | 5.2 | 0.00 | 0.00 | 0.00 | 40 | 1015.6 |
| 20260503184017 | 66 | 90 | 1.7 | 4.3 | 0.00 | 0.00 | 0.00 | 41 | 1015.4 |
| 20260503183017 | 67 | 90 | 2.6 | 7.0 | 0.00 | 0.00 | 0.00 | 40 | 1015.3 |
| 20260503182017 | 67 | 90 | 2.6 | 7.0 | 0.00 | 0.00 | 0.00 | 40 | 1015.2 |
| 20260503181037 | 68 | 90 | 2.6 | 7.8 | 0.00 | 0.00 | 0.00 | 40 | 1015.1 |
| 20260503180017 | 68 | 90 | 1.7 | 6.1 | 0.00 | 0.00 | 0.00 | 40 | 1015.1 |
| 20260503175017 | 69 | 90 | 1.7 | 4.3 | 0.00 | 0.00 | 0.00 | 39 | 1015.0 |
| 20260503174017 | 70 | 90 | 1.7 | 5.2 | 0.00 | 0.00 | 0.00 | 39 | 1014.8 |
| 20260503173017 | 70 | 90 | 2.6 | 6.1 | 0.00 | 0.00 | 0.00 | 38 | 1014.9 |
| 20260503172017 | 71 | 90 | 2.6 | 5.2 | 0.00 | 0.00 | 0.00 | 38 | 1014.8 |
| 20260503171017 | 72 | 90 | 2.6 | 6.1 | 0.00 | 0.00 | 0.00 | 37 | 1014.8 |
| 20260503131017 | 76 | 90 | 4.3 | 10.4 | 0.00 | 0.00 | 0.00 | 35 | 1016.5 |
| 20260503081017 | 69 | 90 | 3.5 | 7.8 | 0.00 | 0.00 | 0.00 | 38 | 1019.2 |
| 20260503072017 | 67 | 90 | 2.6 | 8.7 | 0.00 | 0.00 | 0.00 | 41 | 1019.4 |
| 20260503071017 | 66 | 90 | 1.7 | 5.2 | 0.00 | 0.00 | 0.00 | 43 | 1019.3 |
| 20260503055017 | 60 | 90 | 2.6 | 7.0 | 0.00 | 0.00 | 0.00 | 52 | 1018.9 |
| 20260503054017 | 58 | 90 | 1.7 | 4.3 | 0.00 | 0.00 | 0.00 | 58 | 1019.0 |
| 20260503053037 | 56 | 90 | 0.9 | 3.5 | 0.00 | 0.00 | 0.00 | 61 | 1019.1 |
| 20260503052017 | 54 | 0.0 | 0.9 | 0.00 | 0.00 | 0.00 | 69 | 1019.1 | |
| 20260503051017 | 49 | 0.0 | 0.0 | 0.00 | 0.00 | 0.00 | 78 | 1019.0 | |
| 20260503050057 | 46 | 0.0 | 0.0 | 0.00 | 0.00 | 0.00 | 82 | 1019.1 | |
| 20260503045017 | 45 | 0.0 | 0.0 | 0.00 | 0.00 | 0.00 | 82 | 1019.0 | |
| 20260503044017 | 44 | 0.0 | 0.0 | 0.00 | 0.00 | 0.00 | 81 | 1019.1 | |
| 20260503043017 | 44 | 0.0 | 0.0 | 0.00 | 0.00 | 0.00 | 81 | 1018.9 | |
| 20260503042017 | 43 | 0.0 | 0.0 | 0.00 | 0.00 | 0.00 | 82 | 1018.7 | |
| 20260503041017 | 42 | 0.0 | 0.0 | 0.00 | 0.00 | 0.00 | 82 | 1018.6 | |
| 20260503040037 | 42 | 0.0 | 0.0 | 0.00 | 0.00 | 0.00 | 82 | 1018.7 | |
| 20260503035017 | 42 | 0.0 | 0.0 | 0.00 | 0.00 | 0.00 | 81 | 1018.6 | |
| 20260503034017 | 41 | 0.0 | 0.0 | 0.00 | 0.00 | 0.00 | 81 | 1018.5 |